[[{"header":{"parameterUnit":"m.s-1","parameterCategory":1,"la1":30.2991,"la2":30.254,"lo1":-89.0895,"lo2":-89.0444,"dy":0.0017,"dx":0.0017,"nx":28,"ny":28,"refTime":"2024-05-18T03:00:00:Z","depth":0,"parameterNumber":2,"parameterNumberName":"U-component_of_WINDS"},"data":[0,0,0,0,0,0,0,0,0,0,0,0,0,0,0,0,0,0,0,0,0,0,0,0,0,0,0,0,0,0,0,0,0,0,0,0,0,0,0,0,0,0,0,0,0,0,0,0,0,0,0,0,0,0,0,0,0,0,-6.0867,-6.087,0,-6.1102,-6.1104,-6.1107,-6.108,-6.1076,-6.1072,-6.1069,-6.1312,-6.1322,-6.1332,0,0,0,0,0,0,0,0,0,0,0,0,0,-6.0401,-6.0409,-6.0867,-6.087,-6.0873,-6.1101,-6.1104,-6.1108,-6.1081,-6.1076,-6.1071,-6.1067,-6.1309,-6.1321,-6.1333,0,0,0,0,0,0,0,0,0,0,0,0,0,-6.0616,-6.0412,-6.0867,-6.0887,-6.0891,-6.11,-6.1104,-6.1108,-6.1081,-6.1076,-6.107,-6.1065,-6.1305,-6.132,-6.1335,-6.154,0,0,-6.138,-6.1387,0,0,0,0,0,0,0,0,-6.0604,-6.0633,-6.0881,-6.0886,-6.0891,-6.1056,-6.1029,-6.1253,-6.1083,-6.1009,-6.1069,-6.1062,-6.1232,-6.1252,-6.1309,-6.1551,-6.1562,-6.1382,-6.1391,-6.1397,-6.1402,0,0,0,0,0,0,0,-6.0589,-6.0623,-6.096,-6.0885,-6.0891,-6.0886,-6.091,-6.1072,-6.1149,-6.1015,-6.1014,-6.1042,-6.1233,-6.1295,-6.1314,-6.1565,-6.1381,-6.1395,-6.1404,-6.141,-6.199,-6.1996,0,0,0,0,0,0,-6.0568,-6.0611,-6.0952,-6.0967,-6.073,-6.0899,-6.0926,-6.1009,-6.1148,-6.1163,-6.1046,-6.104,-6.1272,-6.1297,-6.1323,-6.1573,-6.1397,-6.1411,-6.142,-6.1983,-6.1991,-6.1998,0,0,0,0,0,0,-6.0559,-6.0599,-6.0943,-6.0789,-6.0832,-6.0913,-6.1006,-6.1016,-6.1077,-6.1171,-6.1185,-6.1094,-6.1268,-6.1302,-6.1486,-6.1581,-6.1418,-6.1432,-6.1976,-6.1986,-6.1995,-6.2073,0,0,0,0,0,0,-6.0545,-6.0596,-6.0673,-6.0791,-6.084,-6.1101,-6.1012,-6.1025,-6.1102,-6.1096,-6.122,-6.1235,-6.1266,-6.1464,-6.1501,-6.1598,-6.1443,-6.1968,-6.198,-6.1992,-6.2062,-6.2084,-6.2103,0,0,0,0,0,-6.0529,-6.0687,-6.0677,-6.0719,-6.0939,-6.1106,-6.1135,-6.1167,-6.111,-6.119,-6.125,-6.1231,-6.1565,-6.1483,-6.1525,-6.1628,-6.1962,-6.1977,-6.1991,-6.2053,-6.208,-6.2102,0,0,0,0,0,0,-6.0579,-6.0702,-6.0693,-6.0894,-6.099,-6.1101,-6.1202,-6.1194,-6.1309,-6.1299,-6.1335,-6.1363,-6.155,-6.1608,-6.1514,-6.1835,-6.1756,-6.1779,-6.1789,-6.1815,-6.1835,-6.1817,-6.1456,0,0,0,0,0,-6.0614,-6.0738,-6.084,-6.1007,-6.1055,-6.1121,-6.1195,-6.1212,-6.1313,-6.1354,-6.1428,-6.1529,-6.1656,-6.1739,-6.1862,-6.2072,-6.2099,-6.2164,-6.2184,-6.22,-6.2219,-6.2335,-6.2365,-6.2046,-6.2045,-6.2045,0,0,-6.0686,-6.0769,-6.0845,-6.1019,-6.1095,-6.1225,-6.1155,-6.1295,-6.1392,-6.1376,-6.1553,-6.1612,-6.1727,-6.1925,-6.2016,-6.1979,-6.2314,-6.2218,-6.223,-6.2241,-6.2353,-6.2383,-6.241,-6.2055,-6.2054,-6.2052,0,0,-6.0883,-6.0959,-6.1106,-6.1184,-6.13,-6.1343,-6.1379,-6.1493,-6.1531,-6.171,-6.1701,-6.1818,-6.2037,-6.2119,-6.2189,-6.2421,-6.2407,-6.246,-6.2565,-6.2677,-6.2703,-6.2725,-6.2807,-6.2836,-6.2479,-6.248,-6.248,0,-6.0958,-6.1152,-6.1183,-6.1324,-6.1401,-6.1393,-6.1543,-6.1618,-6.1769,-6.1823,-6.178,-6.2055,-6.2132,-6.2349,-6.2406,-6.2463,-6.2506,-6.2445,-6.2696,-6.2719,-6.2741,-6.2819,-6.285,-6.2485,-6.2484,-6.2484,-6.2483,0,-6.1238,-6.1373,-6.1478,-6.1623,-6.1713,-6.1858,-6.1913,-6.2,-6.201,-6.2058,-6.2242,-6.2334,-6.2475,-6.2529,-6.254,-6.2749,-6.2722,-6.2688,-6.2609,-6.2776,-6.2851,-6.2881,-6.2493,-6.2491,-6.2489,-6.2488,0,0,-6.1471,-6.1633,-6.1671,-6.1737,-6.1866,-6.1971,-6.2118,-6.2255,-6.2329,-6.2435,-6.2558,-6.2745,-6.2714,-6.2794,-6.2815,-6.2914,-6.3092,-6.2868,-6.2871,-6.2905,-6.3328,-6.3351,-6.3386,-6.3085,-6.309,-6.3095,-6.3318,0,-6.168,-6.1936,-6.197,-6.2198,-6.2323,-6.2318,-6.2445,-6.2539,-6.2589,-6.2704,-6.2759,-6.289,-6.284,-6.2888,-6.2986,-6.3049,-6.3177,-6.3034,-6.3201,-6.3206,-6.317,-6.3425,-6.345,-6.3655,-6.3347,-6.3352,-6.3356,0,-6.1958,-6.207,-6.2309,-6.2422,-6.2476,-6.2589,-6.2718,-6.2828,-6.2936,-6.2965,-6.3056,-6.3065,-6.3218,-6.3134,-6.3346,-6.3248,-6.3319,-6.3361,-6.337,-6.3385,-6.3289,-6.3446,-6.3722,-6.3752,-6.3402,-6.3398,-6.3395,0,-6.2102,-6.2314,-6.2484,-6.2541,-6.2677,-6.2757,-6.2818,-6.292,-6.3001,-6.3115,-6.3168,-6.3299,-6.337,-6.3473,-6.3518,-6.3453,-6.3727,-6.3647,-6.3756,-6.3755,-6.3812,-6.3808,-6.4102,-6.3861,-6.3861,-6.386,-6.3859,0,-6.2331,-6.2477,-6.2551,-6.2656,-6.2821,-6.286,-6.3022,-6.308,-6.3172,-6.3289,-6.3294,-6.3405,-6.3458,-6.3578,-6.3615,-6.3785,-6.3817,-6.3846,-6.3854,-6.3845,-6.3841,-6.389,-6.3876,-6.3868,-6.3866,-6.3865,-6.3863,0,-6.2519,-6.2574,-6.276,-6.2874,-6.2906,-6.3022,-6.3121,-6.3223,-6.3273,-6.3422,-6.3459,-6.3538,-6.3678,-6.3734,-6.3907,-6.3932,-6.4128,-6.4125,-6.409,-6.4092,-6.4198,-6.4187,-6.4533,-6.458,-6.4309,-6.4311,-6.4313,0,-6.266,-6.2773,-6.2899,-6.2977,-6.304,-6.3167,-6.3249,-6.3293,-6.3379,-6.3511,-6.3598,-6.3739,-6.3853,-6.4079,-6.4152,-6.4285,-6.4285,-6.4397,-6.4305,-6.4292,-6.4286,-6.4277,-6.4289,-6.4413,-6.4416,-6.4418,-6.442,0,-6.2905,-6.2927,-6.3044,-6.3173,-6.3271,-6.3375,-6.3476,-6.354,-6.36,-6.3697,-6.384,-6.3929,-6.4106,-6.4245,-6.4382,-6.4447,-6.4445,-6.4449,-6.4481,-6.4472,-6.4447,-6.4461,-6.4135,-6.444,-6.4438,-6.4437,-6.4436,-6.4435,-6.3073,-6.3173,-6.3277,-6.3409,-6.349,-6.3584,-6.3686,-6.3749,-6.3869,-6.4014,-6.4034,-6.4188,-6.4296,-6.4479,-6.455,-6.4672,-6.4643,-6.4689,-6.4701,-6.4712,-6.4718,-6.4429,-6.4698,-6.4697,-6.4697,-6.4696,-6.4696,0,-6.3317,-6.3384,-6.3505,-6.3646,-6.375,-6.3738,-6.385,-6.3938,-6.4073,-6.4172,-6.4285,-6.4451,-6.4587,-6.4672,-6.481,-6.4891,-6.4894,-6.4926,-6.4919,-6.4935,-6.4737,-6.4695,-6.4922,-6.4922,-6.4922,-6.4922,-6.4921,-6.4921,-6.3456,-6.3624,-6.3659,-6.3868,-6.3935,-6.4085,-6.415,-6.4238,-6.4317,-6.4502,-6.4614,-6.4669,-6.4763,-6.4908,-6.5033,-6.5055,-6.5105,-6.5139,-6.5159,-6.4972,-6.4948,-6.4926,-6.4886,-6.515,-6.5151,-6.5346,-6.5348,-6.5349]},{"header":{"parameterUnit":"m.s-1","parameterCategory":1,"la1":30.2991,"la2":30.254,"lo1":-89.0895,"lo2":-89.0444,"dy":0.0017,"dx":0.0017,"nx":28,"ny":28,"refTime":"2024-05-18T03:00:00:Z","depth":0,"parameterNumber":3,"parameterNumberName":"V-component_of_WINDS"},"data":[0,0,0,0,0,0,0,0,0,0,0,0,0,0,0,0,0,0,0,0,0,0,0,0,0,0,0,0,0,0,0,0,0,0,0,0,0,0,0,0,0,0,0,0,0,0,0,0,0,0,0,0,0,0,0,0,0,0,1.7434,1.7434,0,1.7434,1.7434,1.7434,1.7454,1.7455,1.7456,1.7456,1.7452,1.7451,1.745,0,0,0,0,0,0,0,0,0,0,0,0,0,1.7448,1.7448,1.7434,1.7434,1.7434,1.7434,1.7434,1.7434,1.7454,1.7455,1.7456,1.7456,1.7452,1.7451,1.745,0,0,0,0,0,0,0,0,0,0,0,0,0,1.7444,1.7448,1.7434,1.7444,1.7445,1.7434,1.7434,1.7434,1.7454,1.7455,1.7456,1.7457,1.7452,1.7451,1.745,1.7428,0,0,1.7447,1.7447,0,0,0,0,0,0,0,0,1.7445,1.7444,1.7443,1.7444,1.7445,1.7445,1.7438,1.7432,1.7454,1.7451,1.7456,1.7457,1.7449,1.7448,1.7446,1.7428,1.7428,1.7447,1.7447,1.7446,1.7446,0,0,0,0,0,0,0,1.7445,1.7444,1.7434,1.7443,1.7444,1.7448,1.7448,1.7437,1.7445,1.7451,1.7453,1.7452,1.7449,1.7447,1.7446,1.7427,1.7447,1.7447,1.7446,1.7446,1.7392,1.7392,0,0,0,0,0,0,1.7444,1.7444,1.7434,1.7434,1.7447,1.7447,1.7447,1.7444,1.7445,1.7446,1.7452,1.7453,1.7448,1.7447,1.7446,1.7421,1.7446,1.7445,1.7445,1.7393,1.7392,1.7391,0,0,0,0,0,0,1.7445,1.7443,1.7434,1.7439,1.7439,1.7446,1.7442,1.7444,1.7441,1.7446,1.7447,1.7448,1.7449,1.7447,1.7433,1.7421,1.7445,1.7444,1.7394,1.7393,1.7392,1.737,0,0,0,0,0,0,1.7445,1.7443,1.7435,1.7439,1.7438,1.7422,1.7441,1.7443,1.744,1.7442,1.7443,1.7443,1.7449,1.7434,1.7432,1.742,1.7443,1.7395,1.7394,1.7392,1.7372,1.7368,1.7365,0,0,0,0,0,1.7445,1.7428,1.7435,1.7433,1.7429,1.7421,1.742,1.7429,1.7439,1.7431,1.7434,1.7443,1.7423,1.7433,1.743,1.7418,1.7396,1.7394,1.7392,1.7373,1.7369,1.7365,0,0,0,0,0,0,1.7421,1.7429,1.7436,1.742,1.742,1.7424,1.7414,1.7423,1.7419,1.7421,1.743,1.743,1.7415,1.7415,1.7426,1.7397,1.7411,1.7409,1.7398,1.7394,1.739,1.739,1.7443,0,0,0,0,0,1.7414,1.7408,1.7414,1.7399,1.7399,1.7407,1.7404,1.741,1.741,1.741,1.7411,1.741,1.7403,1.7398,1.7392,1.7372,1.7373,1.7363,1.7359,1.7357,1.7354,1.7345,1.7341,1.7385,1.7385,1.7385,0,0,1.7398,1.7402,1.7397,1.7394,1.7395,1.7388,1.7406,1.7398,1.7393,1.7408,1.7395,1.7396,1.7395,1.7378,1.7371,1.7378,1.7342,1.7354,1.7352,1.7351,1.7342,1.7338,1.7335,1.7384,1.7384,1.7384,0,0,1.7367,1.7369,1.7358,1.7359,1.736,1.7366,1.7363,1.7367,1.7369,1.7357,1.7368,1.7362,1.735,1.7349,1.7347,1.7317,1.7326,1.7315,1.7297,1.7288,1.7284,1.7281,1.7271,1.7268,1.7312,1.7312,1.7312,0,1.7348,1.7339,1.735,1.7342,1.734,1.7356,1.7344,1.7343,1.7342,1.7341,1.7349,1.7336,1.7335,1.7319,1.7313,1.731,1.7307,1.7315,1.7284,1.7281,1.7278,1.7269,1.7265,1.7311,1.7311,1.7311,1.7311,0,1.7315,1.7309,1.7299,1.73,1.7297,1.7287,1.7296,1.7292,1.7299,1.7304,1.7291,1.7292,1.7287,1.7284,1.729,1.7269,1.7273,1.7283,1.7297,1.7273,1.7264,1.7261,1.7309,1.731,1.731,1.731,0,0,1.7268,1.7277,1.7273,1.7274,1.7278,1.7272,1.7263,1.726,1.7256,1.7255,1.7247,1.7238,1.7247,1.7245,1.7251,1.7243,1.7221,1.7253,1.7253,1.7248,1.7198,1.7192,1.7187,1.7227,1.7226,1.7225,1.7199,0,1.7239,1.7224,1.7235,1.7218,1.7213,1.7228,1.722,1.7221,1.7225,1.722,1.7224,1.7218,1.723,1.7229,1.7222,1.7225,1.7211,1.7227,1.7219,1.7219,1.7219,1.7183,1.7175,1.715,1.7195,1.7195,1.7194,0,1.7202,1.7202,1.7186,1.7192,1.719,1.7182,1.7181,1.7177,1.7178,1.7182,1.718,1.7189,1.7179,1.7194,1.7181,1.7192,1.7189,1.719,1.719,1.7189,1.7205,1.7182,1.7142,1.7139,1.7189,1.719,1.719,0,1.7171,1.7166,1.7156,1.7156,1.7163,1.7157,1.716,1.7162,1.716,1.7159,1.7158,1.7154,1.7152,1.7149,1.7157,1.7167,1.7143,1.7158,1.7146,1.7146,1.714,1.714,1.71,1.7138,1.7138,1.7138,1.7138,0,1.7137,1.7127,1.7142,1.7136,1.7124,1.7136,1.7124,1.7128,1.713,1.7125,1.7137,1.7131,1.7141,1.7136,1.7142,1.7131,1.713,1.7132,1.7134,1.7131,1.7131,1.713,1.7132,1.7137,1.7137,1.7137,1.7137,0,1.71,1.7109,1.71,1.7108,1.7109,1.7101,1.7107,1.7101,1.7107,1.71,1.7099,1.7107,1.7102,1.7109,1.7104,1.7108,1.7093,1.7097,1.7093,1.7095,1.7082,1.7084,1.704,1.7035,1.7076,1.7075,1.7075,0,1.7078,1.7071,1.7078,1.7076,1.7079,1.7075,1.7074,1.7085,1.7083,1.7085,1.7079,1.7075,1.7073,1.7064,1.7069,1.7066,1.707,1.7055,1.7069,1.7068,1.7071,1.7071,1.7071,1.7052,1.7051,1.7051,1.7051,0,1.7039,1.7044,1.7043,1.7043,1.7042,1.7042,1.7043,1.704,1.7052,1.7049,1.7045,1.7044,1.704,1.7037,1.7035,1.7036,1.7045,1.7046,1.7043,1.7041,1.7039,1.7041,1.7086,1.7047,1.7047,1.7048,1.7048,1.7048,1.7009,1.7004,1.7009,1.7007,1.7009,1.701,1.7006,1.7012,1.7009,1.7008,1.7015,1.701,1.7012,1.7011,1.7011,1.7007,1.7013,1.7009,1.7008,1.7007,1.7005,1.704,1.7007,1.7007,1.7007,1.7007,1.7007,0,1.6971,1.6976,1.6974,1.6976,1.6974,1.6985,1.6987,1.6985,1.698,1.6982,1.6981,1.6977,1.6973,1.6979,1.6976,1.6972,1.6976,1.6971,1.6971,1.6972,1.6999,1.7002,1.6968,1.6968,1.6968,1.6968,1.6968,1.6968,1.6951,1.6943,1.695,1.6943,1.6947,1.6943,1.6944,1.6945,1.6947,1.6942,1.694,1.6944,1.6948,1.6946,1.6943,1.6945,1.6944,1.6937,1.694,1.6966,1.697,1.6973,1.6976,1.6937,1.6937,1.6913,1.6913,1.6913]}]]